Probability
0 0 0 0 0 0 0 0 0 0 0 0 0 0 0 0 0 0 0 81 58 23 19 45 71 74 45 68 90 100 100 100 100 100 100 100 97 87 58 35 13 3 0
0 0 0 0 0 0 0 0 0 0 0 0 0 0 0 0 0 0 0 0 23 29 39 68 90 97 87 71 87 100 100 100 100 100 100 97 97 90 61 45 16 0 0
0 0 0 0 0 0 0 0 0 0 0 0 0 0 0 0 0 0 0 0 0 0 23 87 94 100 100 97 97 100 100 100 100 100 100 100 97 97 74 58 48 13 0
0 0 0 0 0 0 0 0 0 0 0 0 0 0 0 0 0 0 0 0 0 0 3 61 87 100 100 100 100 100 100 100 100 100 100 100 97 97 87 74 45 16 3
0 0 0 0 0 0 0 0 0 0 0 0 0 0 0 0 0 0 0 0 0 0 0 0 58 84 97 100 100 100 100 100 100 100 100 97 94 84 74 48 42 23 16
0 0 0 0 0 0 0 0 0 0 0 0 0 0 0 0 0 0 0 0 0 0 0 0 0 26 100 100 100 100 100 100 100 100 97 87 65 55 39 29 13 23 13
0 0 0 0 0 0 0 0 0 0 0 0 0 0 0 0 0 0 0 0 0 0 0 0 0 0 35 94 97 100 100 97 100 97 87 71 45 32 23 16 6 6 6
0 0 0 0 0 0 0 0 0 0 0 0 0 0 0 0 0 0 0 0 0 0 0 0 0 0 0 3 16 90 94 100 100 100 87 71 65 52 19 13 3 3 0
0 0 0 0 0 0 0 0 0 0 0 0 0 0 0 0 0 0 0 0 0 0 0 0 0 0 0 0 0 32 65 94 97 87 77 65 55 61 48 16 0 0 0
0 0 0 0 0 0 0 0 0 0 0 0 0 0 0 0 0 0 0 0 0 0 0 0 0 0 0 0 0 0 42 61 94 74 61 55 68 65 58 52 26 13 10
0 0 0 0 0 0 0 0 0 0 0 0 0 0 0 0 0 0 0 0 0 0 0 0 0 0 0 0 0 0 19 26 74 84 55 45 52 65 77 68 52 39 10
0 0 0 0 0 0 0 0 0 0 0 0 0 0 0 0 0 0 0 0 0 0 0 0 0 0 0 0 0 0 6 3 39 65 58 58 65 81 77 65 48 19 6
0 0 0 0 0 0 0 0 0 0 0 0 0 0 0 0 0 0 0 0 0 0 0 0 0 0 0 0 0 0 0 0 10 35 32 52 71 87 84 61 39 10 3
0 0 0 0 0 0 0 0 0 0 0 0 0 0 0 0 0 0 0 0 0 0 0 0 0 0 0 0 0 0 0 0 0 6 16 16 45 71 81 74 45 16 3
0 0 0 0 0 0 0 0 0 0 0 0 0 0 0 0 0 0 0 0 0 0 0 0 0 0 0 0 0 0 0 0 0 0 6 6 16 32 52 55 45 13 6
0 0 0 0 0 0 0 0 0 0 0 0 0 0 0 0 0 0 0 0 0 0 0 0 0 0 0 0 0 0 0 0 0 0 0 0 0 3 13 16 10 0 0
0 0 0 0 0 0 0 0 0 0 0 0 0 0 0 0 0 0 0 0 0 0 0 0 0 0 0 0 0 0 0 0 0 0 0 0 0 0 0 3 0 0 0
0 0 0 0 0 0 0 0 0 0 0 0 0 0 0 0 0 0 0 0 0 0 0 0 0 0 0 0 0 0 0 0 0 0 0 0 0 0 0 0 0 0 0
0 0 0 0 0 0 0 0 0 0 0 0 0 0 0 0 0 0 0 0 0 0 0 0 0 0 0 0 0 0 0 0 0 0 0 0 0 0 0 0 0 0 0
0 0 0 0 0 0 0 0 0 0 0 0 0 0 0 0 0 0 0 0 0 0 0 0 0 0 0 0 0 0 0 0 0 0 0 0 0 0 0 0 0 0 0
0 0 0 0 0 0 0 0 0 0 0 0 0 0 0 0 0 0 0 0 0 0 0 0 0 0 0 0 0 0 0 0 0 0 0 0 0 0 0 0 0 0 0
0 0 0 0 0 0 0 0 0 0 0 0 0 0 0 0 0 0 0 0 0 0 0 0 0 0 0 0 0 0 0 0 0 0 0 0 0 0 0 0 0 0 0
0 0 0 0 0 0 0 0 0 0 0 0 0 0 0 0 0 0 0 0 0 0 0 0 0 0 0 0 0 0 0 0 0 0 0 0 0 0 0 0 0 0 0
0 0 0 0 0 0 0 0 0 0 0 0 0 0 0 0 0 0 0 0 0 0 0 0 0 0 0 0 0 0 0 0 0 0 0 0 0 0 0 0 0 0 0
0 0 0 0 0 0 0 0 0 0 0 0 0 0 0 0 0 0 0 0 0 0 0 0 0 0 0 0 0 0 0 0 0 0 0 0 0 0 0 0 0 0 0
0 0 0 0 0 0 0 0 0 0 0 0 0 0 0 0 0 0 0 0 0 0 0 0 0 0 0 0 0 0 0 0 0 0 0 0 0 0 0 0 0 0 0
Height
5911 5910 5910 5910 5910 5910 5910 5909 5909 5908 5908 5908 5907 5906 5905 5905 5904 5903 5903 5902 5902 5902 5902 5902 5902 5902 5903 5903 5903 5903 5903 5904 5904 5904 5904 5904 5904 5904 5905 5907 5908 5909 5910
5907 5907 5906 5906 5906 5906 5906 5906 5905 5905 5904 5904 5904 5903 5902 5902 5902 5901 5901 5900 5899 5899 5899 5899 5899 5899 5899 5899 5900 5900 5900 5900 5901 5901 5901 5901 5902 5902 5903 5904 5905 5906 5907
5903 5902 5902 5902 5902 5901 5901 5901 5900 5900 5900 5900 5901 5900 5899 5899 5899 5899 5898 5897 5896 5896 5896 5895 5896 5896 5896 5896 5896 5896 5896 5897 5897 5897 5898 5898 5898 5899 5899 5900 5901 5902 5903
5898 5898 5898 5897 5897 5896 5896 5896 5896 5896 5895 5896 5896 5896 5896 5895 5895 5894 5894 5894 5893 5893 5892 5892 5892 5892 5891 5891 5891 5891 5891 5891 5892 5893 5893 5894 5894 5895 5895 5896 5897 5898 5899
5892 5892 5893 5892 5892 5891 5891 5891 5891 5891 5890 5890 5890 5890 5891 5891 5891 5890 5890 5890 5889 5889 5889 5888 5888 5887 5887 5886 5886 5885 5885 5885 5886 5887 5887 5888 5889 5890 5891 5891 5892 5893 5894
5885 5885 5885 5886 5887 5886 5885 5885 5885 5885 5884 5884 5884 5884 5884 5885 5886 5887 5886 5885 5885 5885 5885 5884 5884 5883 5882 5881 5881 5880 5880 5880 5880 5880 5881 5882 5883 5884 5885 5886 5887 5888 5889
5878 5878 5878 5879 5879 5879 5879 5879 5879 5878 5878 5878 5878 5878 5878 5878 5879 5881 5882 5882 5881 5880 5880 5880 5879 5878 5877 5877 5876 5875 5874 5874 5874 5874 5875 5876 5877 5878 5880 5881 5882 5883 5884
5869 5869 5870 5870 5871 5871 5872 5872 5872 5871 5871 5871 5871 5871 5872 5873 5873 5874 5876 5877 5877 5876 5875 5875 5874 5873 5872 5872 5871 5870 5869 5869 5868 5869 5869 5870 5871 5872 5874 5875 5876 5877 5879
5860 5861 5861 5862 5863 5863 5863 5864 5864 5864 5863 5863 5863 5864 5865 5866 5868 5869 5869 5871 5872 5872 5871 5870 5869 5868 5867 5866 5866 5865 5865 5864 5863 5863 5864 5864 5865 5866 5868 5869 5871 5872 5873
5850 5851 5851 5852 5853 5854 5854 5855 5856 5856 5856 5856 5856 5856 5858 5860 5861 5862 5863 5863 5865 5866 5866 5865 5864 5862 5861 5860 5860 5860 5860 5859 5859 5858 5858 5859 5860 5861 5863 5864 5865 5867 5868
5839 5839 5840 5841 5843 5844 5845 5846 5847 5847 5847 5848 5848 5848 5850 5852 5854 5856 5857 5858 5858 5858 5859 5859 5859 5857 5855 5854 5854 5854 5854 5854 5854 5854 5853 5854 5854 5855 5857 5859 5860 5861 5863
5833 5832 5832 5833 5833 5835 5837 5838 5838 5839 5839 5840 5840 5841 5842 5844 5846 5848 5850 5851 5852 5852 5852 5851 5852 5851 5849 5848 5848 5848 5848 5848 5848 5848 5848 5849 5849 5850 5851 5853 5855 5856 5857
5827 5827 5826 5825 5825 5827 5828 5829 5830 5830 5831 5831 5832 5833 5835 5836 5838 5841 5842 5843 5845 5845 5845 5844 5844 5845 5845 5843 5842 5842 5842 5842 5842 5843 5843 5843 5844 5845 5846 5848 5849 5850 5852
5820 5819 5819 5817 5817 5818 5819 5821 5822 5822 5823 5824 5825 5826 5827 5828 5830 5832 5834 5836 5837 5838 5838 5838 5837 5838 5838 5838 5837 5837 5836 5836 5836 5836 5837 5837 5838 5839 5841 5842 5843 5845 5846
5812 5812 5811 5810 5809 5809 5810 5812 5813 5814 5815 5816 5817 5818 5819 5819 5821 5823 5826 5827 5829 5830 5830 5830 5831 5831 5831 5831 5831 5831 5830 5830 5830 5830 5831 5831 5832 5833 5835 5836 5838 5839 5840
5803 5803 5803 5802 5802 5802 5802 5803 5805 5806 5806 5807 5808 5809 5810 5811 5812 5814 5817 5819 5821 5822 5823 5823 5824 5824 5824 5824 5825 5825 5825 5824 5824 5824 5825 5825 5826 5827 5829 5830 5832 5833 5834
5794 5795 5794 5794 5794 5794 5794 5795 5796 5797 5798 5799 5800 5801 5802 5803 5804 5806 5809 5811 5813 5814 5815 5816 5818 5818 5818 5818 5818 5818 5818 5818 5818 5819 5819 5820 5820 5821 5822 5824 5825 5827 5828
5787 5787 5786 5786 5786 5786 5786 5787 5788 5788 5789 5790 5792 5792 5794 5795 5797 5799 5802 5804 5806 5807 5808 5809 5811 5811 5812 5813 5813 5812 5812 5812 5812 5813 5813 5813 5814 5815 5816 5818 5819 5820 5822
5782 5781 5780 5780 5779 5780 5780 5780 5781 5782 5783 5783 5784 5785 5787 5788 5790 5793 5795 5797 5799 5800 5801 5802 5804 5805 5806 5807 5807 5807 5807 5807 5806 5807 5807 5807 5808 5809 5810 5812 5813 5814 5815
5779 5778 5776 5776 5776 5775 5775 5775 5775 5776 5776 5777 5778 5779 5781 5782 5784 5787 5789 5791 5792 5793 5794 5795 5797 5798 5799 5801 5801 5801 5801 5801 5801 5801 5801 5802 5803 5803 5805 5806 5807 5808 5809
5777 5775 5774 5773 5772 5771 5771 5770 5770 5770 5771 5772 5773 5774 5776 5777 5779 5781 5783 5785 5786 5787 5788 5789 5791 5792 5794 5795 5795 5796 5796 5796 5796 5796 5796 5796 5797 5798 5799 5800 5801 5802 5803
5775 5773 5771 5770 5768 5767 5766 5766 5766 5766 5766 5767 5768 5769 5770 5772 5773 5775 5777 5778 5779 5781 5782 5784 5785 5786 5788 5789 5790 5790 5791 5791 5791 5791 5791 5791 5792 5792 5793 5794 5795 5796 5796
5772 5770 5768 5766 5764 5762 5761 5760 5760 5760 5760 5761 5762 5763 5764 5766 5767 5769 5770 5772 5773 5775 5777 5778 5780 5781 5782 5783 5784 5785 5786 5786 5787 5786 5787 5787 5787 5788 5789 5789 5790 5790 5790
5769 5766 5763 5761 5759 5757 5756 5754 5754 5754 5754 5754 5755 5756 5758 5759 5761 5762 5764 5766 5768 5769 5771 5773 5774 5775 5777 5778 5779 5780 5781 5782 5783 5783 5783 5783 5783 5783 5783 5784 5784 5783 5783
5766 5762 5758 5755 5753 5751 5749 5748 5748 5748 5748 5748 5749 5750 5751 5753 5755 5757 5759 5761 5763 5765 5766 5768 5769 5770 5771 5773 5774 5776 5777 5778 5779 5779 5779 5780 5779 5779 5779 5779 5778 5777 5776
5763 5759 5754 5750 5747 5745 5743 5742 5742 5742 5742 5742 5742 5744 5745 5747 5749 5751 5754 5756 5758 5760 5762 5764 5765 5766 5767 5768 5769 5771 5773 5774 5775 5776 5776 5776 5776 5776 5775 5774 5773 5772 5770
Wind_Speed
21 21 21 20 19 18 17 17 17 16 14 12 11 11 11 11 11 10 10 10 10 10 10 10 10 11 11 11 11 11 11 10 9 8 8 9 10 12 14 16 16 16 15
21 23 23 22 22 21 20 20 20 19 18 16 14 14 14 14 14 13 13 13 12 12 12 13 13 14 14 15 16 16 15 14 13 13 13 12 12 12 13 16 18 19 18
21 22 24 24 25 25 24 23 23 22 21 20 18 17 17 17 17 16 15 15 15 16 16 16 16 16 17 18 19 20 20 19 18 18 17 16 16 15 14 15 16 19 21
23 23 24 25 25 26 26 25 25 25 25 24 23 21 20 19 20 20 19 18 18 18 18 18 19 19 19 20 21 22 22 23 23 22 22 20 19 19 18 17 17 17 19
25 25 25 25 25 26 26 26 25 25 26 26 26 25 24 22 21 21 21 20 19 18 18 19 20 20 20 21 21 22 24 25 25 25 25 24 23 22 21 20 20 18 18
27 28 28 27 26 26 26 26 25 25 26 27 28 28 28 26 23 22 22 22 20 19 18 19 20 21 21 21 22 22 23 25 25 26 26 26 25 24 23 21 21 21 20
30 30 30 28 27 27 27 27 27 27 27 29 29 29 29 28 26 24 22 21 21 20 20 20 21 21 21 22 22 23 23 23 24 25 26 26 26 25 24 23 22 23 23
32 31 31 30 28 28 28 26 27 27 28 28 29 30 30 29 28 26 24 22 21 21 22 23 22 22 22 22 22 22 22 22 22 23 24 24 25 25 25 24 23 23 24
30 31 32 31 29 29 29 27 26 27 27 27 28 31 31 30 28 27 26 24 21 21 22 24 24 23 22 22 22 22 22 22 21 21 22 23 24 24 24 24 22 22 23
30 31 31 31 31 31 29 27 26 26 26 25 27 30 32 30 29 28 27 26 24 23 23 23 24 24 23 23 22 22 21 22 22 21 21 22 23 24 24 24 22 21 21
32 33 33 34 32 30 28 26 26 25 25 25 26 28 30 31 30 29 28 27 26 25 25 25 24 24 23 23 22 21 21 22 22 22 22 22 23 23 24 24 23 22 21
32 34 33 33 32 29 27 26 25 25 25 26 26 26 29 31 32 31 30 29 28 27 27 27 25 23 23 23 22 21 21 21 22 23 23 23 24 24 25 26 25 23 22
34 35 35 35 32 29 26 25 25 24 25 26 27 28 28 30 32 33 33 32 29 28 28 28 26 23 22 23 23 22 22 22 23 23 24 24 24 25 26 26 27 26 24
34 34 35 34 33 30 27 24 24 24 26 28 28 29 30 31 32 33 33 32 31 30 28 28 27 24 22 22 23 22 22 22 22 23 23 24 24 25 26 27 27 28 27
35 34 33 32 31 29 28 27 26 28 29 30 31 31 32 32 33 34 34 33 31 30 29 27 26 24 22 21 21 21 21 21 22 22 23 23 24 25 26 27 28 28 28
36 33 33 32 31 32 33 32 30 31 32 32 32 32 33 33 33 33 33 32 30 29 29 27 24 23 21 21 20 19 20 20 21 22 22 23 24 25 26 26 27 28 29
32 31 31 31 31 32 32 32 32 33 34 34 34 33 33 33 33 33 32 31 29 28 27 25 23 22 21 20 19 19 19 20 21 21 22 23 24 26 26 27 27 28 29
27 27 27 26 26 26 26 27 28 29 30 31 32 31 31 30 29 28 28 28 27 25 25 23 21 20 20 20 19 19 19 19 21 22 23 23 24 25 26 26 27 28 28
19 19 18 18 18 19 19 19 21 23 24 26 26 26 26 25 25 24 25 25 24 23 22 22 20 20 20 20 19 19 19 20 21 23 23 23 23 24 25 26 26 26 26
8 9 10 11 12 14 15 16 17 17 18 19 19 19 20 20 21 22 22 22 22 21 21 20 20 19 20 20 20 19 19 20 21 22 23 23 24 26 25 25 24 24 23
9 10 11 12 13 14 15 15 16 16 16 16 16 17 17 18 18 20 20 20 19 19 19 19 20 19 20 20 20 19 19 18 19 20 22 23 25 26 26 25 25 24 24
12 12 13 13 14 15 15 16 17 17 18 18 18 18 19 19 19 20 20 19 19 18 18 19 20 20 20 20 20 19 18 17 17 17 19 21 22 24 25 26 26 27 27
14 14 15 15 16 16 16 17 17 18 18 19 19 20 21 21 21 21 20 19 18 18 18 19 20 20 21 21 20 20 18 16 15 16 16 16 18 20 23 24 27 29 30
17 17 18 18 18 18 18 17 17 17 18 19 19 21 22 22 22 21 20 18 17 17 17 18 18 19 20 20 20 19 18 17 16 15 14 14 15 16 19 21 24 25 28
18 18 19 19 19 18 18 17 17 17 17 18 19 20 21 22 22 21 19 18 16 15 15 15 15 16 17 18 18 18 17 16 16 15 14 14 14 15 16 19 21 24 27
18 18 17 16 16 16 15 15 15 16 16 17 18 19 20 20 20 19 19 18 16 14 13 13 12 12 13 14 15 16 16 15 15 15 15 15 16 17 19 21 23 25 27
Wind_Direction
269 271 272 275 278 281 285 288 287 284 284 291 297 296 292 291 294 300 303 299 295 289 283 279 276 276 275 275 276 278 280 282 283 284 278 270 262 252 243 237 235 235 235
266 266 266 267 271 274 277 281 282 282 282 284 288 292 289 283 281 286 292 294 292 289 286 281 278 276 274 271 269 267 267 267 269 272 274 272 269 265 256 245 239 239 240
260 262 263 265 267 270 273 277 279 279 277 275 276 281 284 280 278 280 286 291 291 289 287 286 283 280 277 273 270 266 264 262 262 263 266 269 270 270 263 255 247 243 242
259 257 258 261 264 268 271 273 274 274 271 271 272 274 278 280 281 280 282 287 289 287 287 288 287 284 279 274 271 268 264 261 259 259 260 262 266 268 267 263 257 253 248
261 259 257 257 259 263 267 268 269 270 270 271 272 272 274 277 278 278 280 285 286 285 286 289 288 283 279 276 273 270 267 263 259 258 257 258 259 261 264 264 261 258 256
262 262 260 258 257 259 262 264 266 267 267 269 271 271 272 274 275 273 275 280 281 282 285 288 286 283 280 277 275 273 270 266 263 259 257 255 255 255 257 259 258 256 255
259 260 261 260 258 259 261 262 263 265 267 267 268 267 267 270 272 272 271 273 276 279 284 286 285 283 280 276 276 275 273 269 265 261 258 254 252 252 252 254 254 252 250
258 257 257 259 257 257 260 260 260 265 268 267 265 262 261 264 267 270 269 267 269 274 281 284 284 281 279 276 275 274 273 271 266 262 257 253 251 250 249 251 251 250 248
261 258 256 258 257 256 256 258 260 264 269 267 264 259 257 259 262 265 267 267 265 267 274 280 281 280 277 274 273 273 273 271 267 262 257 253 250 248 247 248 250 251 249
264 262 261 260 261 259 256 257 261 265 268 265 262 257 254 254 256 260 263 267 269 269 271 274 277 277 275 272 271 270 271 270 267 264 258 253 249 247 246 246 247 250 250
272 268 270 268 265 266 260 260 263 265 266 265 262 257 251 250 252 255 258 263 267 270 272 273 274 273 272 271 270 268 268 268 266 264 259 254 250 246 245 245 244 246 248
273 275 275 275 272 269 265 265 264 264 264 266 263 258 252 251 252 252 255 258 262 267 272 273 272 269 266 267 269 267 266 265 264 265 260 255 251 247 245 245 244 244 246
273 275 276 275 271 267 265 263 261 261 265 264 261 258 256 254 254 253 253 256 259 262 268 271 271 267 261 262 264 266 266 265 264 265 262 256 252 248 247 247 246 245 245
274 273 274 270 267 265 260 258 257 257 262 261 261 259 256 257 257 255 254 254 256 261 264 266 268 266 260 258 260 262 265 266 265 265 261 255 251 249 248 249 249 248 247
273 272 269 269 266 261 259 258 258 257 259 258 258 258 259 258 257 255 255 253 255 259 262 262 262 263 260 258 257 258 262 265 264 263 259 255 252 250 250 250 251 250 250
270 268 267 265 263 262 259 257 255 256 257 257 257 259 257 255 253 252 251 250 253 258 258 258 257 257 257 256 254 256 260 263 263 261 258 255 253 252 251 251 251 252 252
267 267 266 265 262 260 259 256 255 255 255 255 253 253 252 251 249 250 249 249 251 254 254 254 253 253 253 252 252 257 261 262 263 262 260 258 256 253 251 250 251 252 253
268 268 268 266 264 263 258 252 251 248 246 248 249 247 246 246 246 246 246 248 249 250 250 250 250 250 249 250 253 258 262 265 265 262 261 259 258 254 251 251 252 253 255
271 270 267 262 256 248 242 240 239 239 241 242 240 241 241 241 242 243 245 247 248 248 248 248 248 248 247 248 251 256 262 266 265 261 259 257 256 255 253 253 254 255 257
292 285 276 265 256 250 247 244 241 240 241 242 242 242 241 241 242 244 246 248 249 249 248 248 248 247 246 246 249 254 260 264 263 260 256 254 256 253 251 252 253 255 257
329 322 314 303 295 286 280 275 268 265 265 262 258 253 248 246 246 248 248 249 251 251 249 248 247 246 245 245 246 251 258 263 265 259 254 253 255 252 248 248 250 252 255
336 326 318 309 301 294 287 281 277 273 270 266 263 259 255 253 252 251 250 250 251 251 251 249 247 246 245 245 246 248 253 262 264 261 257 256 253 248 248 249 250 252 254
337 328 319 310 301 294 286 279 273 268 263 259 255 251 248 249 249 250 251 252 252 251 250 249 247 246 246 245 246 248 251 256 262 262 261 258 254 250 252 254 256 257 259
333 325 317 309 300 293 287 282 277 272 265 259 253 248 245 243 244 247 247 248 250 249 249 248 247 246 246 246 246 247 250 252 258 262 266 265 265 266 264 263 264 266 268
337 329 320 311 302 294 287 281 276 272 267 260 254 249 244 243 243 245 244 242 241 240 240 242 244 246 246 245 245 245 247 251 254 256 259 266 271 271 274 277 276 276 275
352 345 338 328 316 304 293 285 280 276 270 262 255 249 244 243 241 241 239 236 233 234 237 238 239 241 243 243 244 245 246 248 251 255 259 264 270 273 277 279 281 282 282